Location: Arcusa
(42.3167°N, 0.0833°W)
Time: 16:00:08
(UTC+00:00)

Cosmos 2228 - Pass Details

Date: 25 January 2020
Orbit: 588 x 619 km, 82.5° (Epoch: 18 February)

Event Time Altitude Azimuth Distance (km) Brightness Sun altitude
Rises 05:11:49 0° 188° (S) 2,880 6.5 -23.8°
Reaches altitude 10° 05:14:02 10° 189° (S) 1,979 5.6 -23.4°
Maximum altitude 05:18:26 84° 278° (W) 627 2.9 -22.5°
Drops below altitude 10° 05:22:51 10° 7° (N) 1,987 5.6 -21.7°
Sets 05:25:04 0° 8° (N) 2,893 6.5 -21.3°
